Location: Piotrkow Trybunalski
(51.4000°N, 19.6830°E)
Time: 17:30:40
(UTC+01:00)

ISS - Pass Details

Date: 04 February 2020
Orbit: 415 x 422 km, 51.6° (Epoch: 26 February)

Event Time Altitude Azimuth Distance (km) Brightness Sun altitude
Rises 19:21:09 0° 280° (W) 2,379 1.4 -26.0°
Reaches altitude 10° 19:23:58 10° 255° (WSW) 1,508 -0.1 -26.4°
Enters shadow 19:25:42 14° 224° (SW) 1,272 -0.9 -26.7°
